Location: Goheenville
(40.9070°N, 79.3720°W)
Time: 23:40:51
(UTC-05:00)

Daily predictions for brighter satellites

Satellite Brightness Start Highest point End
(mag) Time Altitude Azimuth Time Altitude Azimuth Time Altitude Azimuth
Cosmos 2333 Rocket 3.0 17:38:30 10° SSE 17:43:22 31° ESE 17:48:16 10° NE
Cosmos 1763 Rocket 3.5 17:41:11 10° S 17:46:22 68° ESE 17:51:31 10° NNE
CORIOLIS 4.1 17:42:58 10° SSE 17:48:17 75° ENE 17:53:39 10° N
Tsikada Rocket 4.1 17:46:48 10° S 17:53:10 90° SE 17:59:38 10° N
BREEZE-M DEB (TANK) 3.9 17:50:55 10° WNW 17:53:37 48° SSW 18:00:25 10° SE
Cosmos 2219 Rocket 2.4 17:51:26 10° S 17:56:53 52° ESE 18:02:20 10° NNE
Cosmos 1743 Rocket 3.6 17:53:28 10° S 17:57:52 63° E 18:02:19 10° NNE
Cosmos 2278 Rocket 2.8 17:57:07 10° N 18:02:19 35° ENE 18:07:29 10° ESE
Cosmos 1328 Rocket 3.5 17:59:08 10° N 18:03:35 76° E 18:08:01 10° SSE
Cosmos 540 Rocket 4.1 18:02:29 10° SSE 18:07:10 36° ESE 18:11:51 10° NE
Cosmos 1340 Rocket 4.3 18:04:48 10° SE 18:07:29 18° E 18:09:40 12° NE
USA 215 3.4 18:01:54 10° ESE 18:08:14 55° NE 18:14:36 10° NW
Cosmos 2151 3.5 18:05:48 10° SSE 18:09:38 36° E 18:13:29 10° NNE
Cosmos 1908 3.9 18:06:06 10° NNW 18:09:56 60° W 18:13:46 10° S
Cosmos 1515 Rocket 3.5 18:06:01 10° N 18:10:29 66° E 18:14:54 10° SSE
Cosmos 332 Rocket 3.7 18:05:44 10° SSW 18:10:33 81° ESE 18:15:26 10° NNE
MONITOR-E 4.1 18:08:31 10° SSE 18:11:40 78° ENE 18:14:51 10° N
Cosmos 1844 3.7 18:07:45 10° NNW 18:13:32 73° ENE 18:19:18 10° SSE
SKYMED 2 3.6 18:09:32 10° NNE 18:13:51 58° E 18:18:06 10° S
Abrixas 4.4 18:12:39 10° S 18:14:37 17° SE 18:15:50 13° ESE
SL-14 R/B 3.7 18:12:36 10° SSE 18:16:16 40° E 18:20:00 10° NNE
Cosmos 1674 3.8 18:14:26 10° SSW 18:18:06 47° W 18:21:51 10° N
SPOT 3 Rocket 4.3 18:13:13 10° S 18:18:15 56° W 18:23:21 10° NNW
MSX 4.2 18:12:51 10° S 18:18:33 70° WSW 18:24:16 10° NNW
Thor Agena Rocket 4.1 18:13:35 10° N 18:18:47 64° WNW 18:23:54 10° SSW
Cosmos 1626 4.2 18:17:25 10° ESE 18:17:51 11° ESE 18:17:51 11° ESE
Cosmos 1151 Rocket 3.0 18:15:56 10° N 18:20:09 56° E 18:24:21 10° SSE
Cosmos 1634 Rocket 3.9 18:14:13 10° N 18:20:26 76° E 18:26:35 10° SSE
Cosmos 1484 Rocket 2.8 18:17:46 10° SSE 18:21:39 87° WSW 18:25:39 10° NNW
COSMOS 2428 3.5 18:18:25 10° SW 18:24:00 53° WNW 18:29:36 10° NNE
Cosmos 1125 Rocket 3.5 18:19:08 10° NNW 18:24:18 60° ENE 18:29:25 10° SSE
NOAA 12 4.3 18:19:43 10° SE 18:24:39 44° ENE 18:29:38 10° N
Cosmos 1500 Rocket 3.5 18:20:33 10° S 18:24:51 89° ESE 18:29:14 10° N
Cosmos 2237 Rocket 2.3 18:22:00 10° S 18:27:28 56° ESE 18:32:59 10° NNE
BREEZE-M DEB (TANK) 3.8 18:22:57 10° NW 18:30:18 50° SW 18:33:19 10° SSE
ALOS 3.3 18:27:47 10° ESE 18:31:25 23° ENE 18:35:05 10° NNE
SL-16 R/B 3.2 18:27:44 10° SSE 18:32:17 26° ESE 18:34:21 21° ENE
Cosmos 44 3.5 18:27:41 10° SSW 18:32:53 60° ESE 18:36:41 17° NE
Cosmos 1300 2.6 18:30:48 10° N 18:34:39 77° E 18:38:28 10° SSE
Spot 2 Rocket 4.4 18:31:14 10° ESE 18:35:19 25° ENE 18:39:25 10° N
Cosmos 1726 2.0 18:32:58 10° N 18:36:45 85° E 18:40:31 10° S
Cosmos 841 Rocket 4.5 18:35:08 10° SW 18:40:13 48° WNW 18:45:19 10° N
Cosmos 371 Rocket 3.5 18:36:11 10° SSW 18:40:58 70° WNW 18:45:47 10° NNE
Cosmos 2297 4.3 18:36:07 10° N 18:41:18 35° ENE 18:44:55 18° ESE
Sich 1 4.2 18:37:57 10° SE 18:40:52 23° ESE 18:40:52 23° ESE
NOSS 0 Rocket 3.9 18:36:05 10° SSW 18:42:19 87° ESE 18:48:35 10° NNE
BREEZE-M DEB (TANK) 2.0 18:40:18 10° SW 18:42:41 57° SE 18:43:04 48° E
Lacrosse 5 rocket 1.9 18:39:28 10° NNW 18:42:58 34° NE 18:43:38 31° ENE
CZ-4 R/B 4.5 18:40:35 10° SW 18:43:03 16° W 18:45:31 10° NW
OTV 4 1.7 18:45:44 10° W 18:48:28 34° SSW 18:49:25 27° SSE
FREGAT/IRIS 4.5 18:46:33 10° SSE 18:52:41 - N 18:47:34 19° SE
CENTAUR R/B 3.7 18:45:54 10° WSW 18:51:39 39° NW 18:58:07 10° NNE
Resurs 01 Rocket 2.3 18:54:23 33° NE 18:54:23 33° NE 18:57:52 10° N
Meteor 1-11 4.2 18:48:16 10° S 18:53:55 84° E 18:59:42 10° N
Cosmos 2084 3.9 18:52:20 10° SW 18:56:08 50° NW 18:58:06 24° NNE
Meteor 1-28 Rocket 3.8 18:55:40 10° N 18:59:18 55° WNW 19:02:55 10° SSW
Cosmos 1844 Rocket 4.4 18:54:44 10° NW 18:59:50 35° WSW 19:04:53 10° SSW
Cosmos 44 Rocket 4.1 18:55:40 10° SW 19:00:40 51° NW 19:04:26 17° NNE
COSMO-SKYMED 1 3.9 18:57:43 10° N 19:01:48 40° WNW 19:05:51 10° SW
Lacrosse 5 4.0 19:00:01 10° NW 19:02:43 14° NNW 19:04:47 12° NNE
CZ-3A R/B 2.9 18:58:02 10° NW 19:02:46 55° NE 19:04:52 33° E
Aureole 2 Rocket 2.5 19:00:03 10° SSW 19:03:39 83° ESE 19:04:38 48° NNE
Cosmos 1707 Rocket 3.5 19:01:31 10° N 19:05:47 55° E 19:10:02 10° SSE
FengYun 1-2 T 4.2 19:04:29 10° SSE 19:09:58 60° ENE 19:15:25 10° N
Cosmos 1461 3.6 19:07:23 10° S 19:10:31 36° SSE 19:10:31 36° SSE
Cosmos 2279 Rocket 4.2 19:06:32 10° NNW 19:12:44 73° W 19:18:55 10° S
SJ-6B 3.0 19:08:51 10° S 19:12:53 73° WSW 19:17:00 10° NNW
Cosmos 1980 4.3 19:09:18 10° SW 19:14:52 56° WNW 19:19:45 14° NNE
Cosmos 1666 Rocket 3.6 19:11:38 10° S 19:15:24 57° SE 19:15:24 57° SE
Milstar 3 4.5 19:12:58 10° WSW 19:18:06 23° SSW 19:23:49 10° SE
Cosmos 2058 4.0 19:16:56 10° SSW 19:20:51 43° WNW 19:24:47 10° N
FENGYUN 3A 3.5 19:19:17 10° SSE 19:24:36 75° ENE 19:29:59 10° N
Cosmos 304 Rocket 3.7 19:22:08 10° SSW 19:26:57 83° WNW 19:28:08 52° N
Cosmos 2333 Rocket 3.5 19:22:16 10° SW 19:27:29 38° WNW 19:32:21 12° N
Cosmos 1703 3.7 19:24:55 10° SSW 19:28:46 60° W 19:29:16 54° NW
Nadezhda 4 Rocket 3.9 19:26:44 10° S 19:32:58 86° E 19:39:19 10° N
Cosmos 2219 Rocket 4.2 19:36:37 10° WSW 19:41:08 24° NW 19:45:39 10° N
Cosmos 2278 Rocket 3.8 19:41:18 10° NW 19:46:20 33° WSW 19:51:20 10° SSW
Cosmos 1092 Rocket 3.9 19:43:57 10° S 19:50:16 85° E 19:51:46 56° NNE
USA 215 4.1 19:45:33 12° SSE 19:51:17 46° SW 19:57:33 10° WNW
Cosmos 1626 4.3 19:50:45 10° SW 19:52:36 24° SW 19:52:36 24° SW
ALOS 3.7 20:04:21 10° SSW 20:08:39 36° W 20:12:58 10° NNW
Cosmos 2237 Rocket 4.2 20:07:32 10° WSW 20:11:53 23° NW 20:14:53 15° NNW
SL-16 R/B 3.1 20:10:43 10° SW 20:16:06 44° WNW 20:16:19 44° NW
Lacrosse 5 rocket 4.2 20:18:43 10° WNW 20:19:24 14° WNW 20:19:24 14° WNW
Resurs 01 Rocket 4.2 20:31:56 18° WNW 20:31:56 18° WNW 20:33:47 10° NW
USA 229 DEB 4.5 20:27:21 10° SW 20:31:47 44° SW 20:31:47 44° SW
USA 229 4.5 20:27:27 10° SW 20:31:50 43° SW 20:31:50 43° SW
